When you browse on this site, cookies collect data to enhance your experience and personalize the content and advertising you see.
Visit our Privacy Policy to learn more. By continuing to use the site, you agree to this use of cookies and data.
  • In Hungary
  • List of Countries
  • For 7 days
  • Water Temperature
  • Weather Map
  • News
  • Weather Widgets
  • user-avatar
    Login

    Hourly Weather Knipy

    Today, 23 September, Monday

    Time Temperature Precipitation Wind Pressure Humidity
    00:00 +10°C° 0 mm 4 mps 752 mmHg 82%
    01:00 +8°C° 0 mm 4 mps 753 mmHg 78%
    02:00 +7°C° 0 mm 4 mps 753 mmHg 78%
    03:00 +7°C° 0 mm 4 mps 753 mmHg 79%
    04:00 +6°C° 0 mm 4 mps 753 mmHg 80%
    05:00 +6°C° 0 mm 5 mps 753 mmHg 79%
    06:00 +6°C° 0 mm 5 mps 754 mmHg 78%
    07:00 +6°C° 0 mm 5 mps 754 mmHg 77%
    08:00 +7°C° 0 mm 5 mps 754 mmHg 72%
    09:00 +8°C° 0 mm 5 mps 754 mmHg 68%
    10:00 +9°C° 0 mm 5 mps 754 mmHg 63%
    11:00 +10°C° 0 mm 5 mps 754 mmHg 60%
    12:00 +12°C° 0 mm 5 mps 754 mmHg 56%
    13:00 +13°C° 0 mm 5 mps 754 mmHg 53%
    14:00 +13°C° 0 mm 4 mps 754 mmHg 53%
    15:00 +13°C° 0 mm 4 mps 753 mmHg 54%
    16:00 +12°C° 0 mm 4 mps 753 mmHg 55%
    17:00 +11°C° 0 mm 3 mps 753 mmHg 58%
    18:00 +9°C° 0 mm 3 mps 754 mmHg 61%
    19:00 +8°C° 0 mm 3 mps 754 mmHg 64%
    20:00 +7°C° 0 mm 3 mps 754 mmHg 65%
    21:00 +7°C° 0 mm 3 mps 754 mmHg 65%
    22:00 +5°C° 0 mm 3 mps 754 mmHg 66%
    23:00 +5°C° 0 mm 3 mps 754 mmHg 67%

    Tomorrow, 24 September, Tuesday

    Time Temperature Precipitation Wind Pressure Humidity
    00:00 +5°C° 0 mm 3 mps 754 mmHg 69%
    01:00 +4°C° 0 mm 3 mps 754 mmHg 71%
    02:00 +4°C° 0 mm 3 mps 753 mmHg 73%
    03:00 +4°C° 0 mm 3 mps 753 mmHg 74%
    04:00 +3°C° 0 mm 3 mps 753 mmHg 76%
    05:00 +4°C° 0 mm 3 mps 753 mmHg 75%
    06:00 +4°C° 0 mm 3 mps 753 mmHg 73%
    07:00 +5°C° 0 mm 3 mps 752 mmHg 72%
    08:00 +8°C° 0 mm 3 mps 752 mmHg 68%
    09:00 +10°C° 0 mm 3 mps 752 mmHg 64%
    10:00 +12°C° 0 mm 3 mps 752 mmHg 60%
    11:00 +13°C° 0 mm 3 mps 752 mmHg 57%
    12:00 +14°C° 0 mm 3 mps 752 mmHg 54%
    13:00 +16°C° 0 mm 3 mps 751 mmHg 52%
    14:00 +16°C° 0 mm 2 mps 751 mmHg 54%
    15:00 +16°C° 0 mm 2 mps 751 mmHg 57%
    16:00 +16°C° 0 mm 2 mps 750 mmHg 59%
    17:00 +14°C° 0 mm 2 mps 750 mmHg 64%
    18:00 +12°C° 0 mm 2 mps 750 mmHg 68%
    19:00 +9°C° 0 mm 3 mps 750 mmHg 73%
    20:00 +9°C° 0 mm 3 mps 750 mmHg 74%
    21:00 +8°C° 0 mm 3 mps 750 mmHg 74%
    22:00 +8°C° 0 mm 3 mps 750 mmHg 75%
    23:00 +8°C° 0 mm 3 mps 749 mmHg 74%

    Day after tomorrow, 25 September, Wednesday

    Time Temperature Precipitation Wind Pressure Humidity
    00:00 +7°C° 0 mm 3 mps 749 mmHg 73%
    01:00 +7°C° 0 mm 3 mps 749 mmHg 72%
    02:00 +7°C° 0 mm 3 mps 749 mmHg 71%
    03:00 +7°C° 0 mm 3 mps 749 mmHg 71%
    04:00 +8°C° 0 mm 3 mps 748 mmHg 71%
    05:00 +8°C° 0 mm 3 mps 748 mmHg 71%
    06:00 +7°C° 0 mm 4 mps 748 mmHg 70%
    07:00 +8°C° 0 mm 4 mps 748 mmHg 70%
    08:00 +10°C° 0 mm 4 mps 748 mmHg 68%
    09:00 +12°C° 0 mm 4 mps 748 mmHg 65%
    10:00 +13°C° 0 mm 4 mps 748 mmHg 63%
    11:00 +14°C° 0 mm 4 mps 748 mmHg 60%
    12:00 +15°C° 0 mm 4 mps 747 mmHg 58%
    13:00 +17°C° 0 mm 4 mps 747 mmHg 55%
    14:00 +17°C° 0 mm 4 mps 747 mmHg 58%
    15:00 +17°C° 0 mm 4 mps 747 mmHg 60%
    16:00 +16°C° 0 mm 3 mps 746 mmHg 62%
    17:00 +14°C° 0 mm 3 mps 746 mmHg 65%
    18:00 +13°C° 0 mm 3 mps 747 mmHg 68%
    19:00 +12°C° 0 mm 3 mps 747 mmHg 71%
    20:00 +11°C° 0 mm 3 mps 747 mmHg 72%
    21:00 +11°C° 0 mm 3 mps 747 mmHg 72%
    22:00 +11°C° 0 mm 3 mps 747 mmHg 73%
    23:00 +11°C° 0 mm 3 mps 747 mmHg 74%

    26 September, Thursday

    Time Temperature Precipitation Wind Pressure Humidity
    00:00 +11°C° 0 mm 3 mps 747 mmHg 75%
    01:00 +11°C° 0 mm 3 mps 747 mmHg 75%
    02:00 +11°C° 0.1 mm 3 mps 747 mmHg 79%
    03:00 +11°C° 0.1 mm 3 mps 747 mmHg 82%
    04:00 +11°C° 0.1 mm 3 mps 747 mmHg 85%
    05:00 +11°C° 0.3 mm 3 mps 747 mmHg 86%
    06:00 +11°C° 0.3 mm 4 mps 747 mmHg 87%
    07:00 +11°C° 0.3 mm 4 mps 747 mmHg 89%
    08:00 +12°C° 0.1 mm 4 mps 748 mmHg 86%
    09:00 +12°C° 0.1 mm 4 mps 748 mmHg 84%
    10:00 +13°C° 0.1 mm 4 mps 749 mmHg 82%
    11:00 +13°C° 0.1 mm 3 mps 749 mmHg 83%
    12:00 +13°C° 0.1 mm 3 mps 749 mmHg 84%
    13:00 +14°C° 0.1 mm 3 mps 749 mmHg 85%
    14:00 +15°C° 0 mm 2 mps 749 mmHg 86%
    15:00 +14°C° 0 mm 2 mps 749 mmHg 86%
    16:00 +14°C° 0 mm 2 mps 749 mmHg 87%
    17:00 +14°C° 0 mm 2 mps 750 mmHg 88%
    18:00 +13°C° 0 mm 2 mps 750 mmHg 89%
    19:00 +13°C° 0 mm 2 mps 750 mmHg 90%
    20:00 +13°C° 0 mm 2 mps 750 mmHg 90%
    21:00 +12°C° 0 mm 2 mps 751 mmHg 90%
    22:00 +12°C° 0 mm 2 mps 751 mmHg 91%
    23:00 +12°C° 0 mm 2 mps 751 mmHg 91%

    27 September, Friday

    Time Temperature Precipitation Wind Pressure Humidity
    00:00 +12°C° 0 mm 2 mps 751 mmHg 92%
    01:00 +10°C° 0 mm 2 mps 751 mmHg 93%
    02:00 +10°C° 0 mm 2 mps 751 mmHg 93%
    03:00 +10°C° 0 mm 2 mps 751 mmHg 94%
    04:00 +10°C° 0 mm 2 mps 751 mmHg 95%
    05:00 +10°C° 0 mm 2 mps 751 mmHg 94%
    06:00 +11°C° 0 mm 3 mps 751 mmHg 93%
    07:00 +11°C° 0 mm 3 mps 751 mmHg 92%
    08:00 +13°C° 0 mm 3 mps 751 mmHg 87%
    09:00 +14°C° 0 mm 3 mps 751 mmHg 82%
    10:00 +17°C° 0 mm 4 mps 752 mmHg 77%
    11:00 +18°C° 0 mm 4 mps 751 mmHg 74%
    12:00 +18°C° 0 mm 4 mps 751 mmHg 71%
    13:00 +19°C° 0 mm 4 mps 751 mmHg 68%
    14:00 +19°C° 0.1 mm 4 mps 751 mmHg 70%
    15:00 +18°C° 0.1 mm 4 mps 750 mmHg 72%
    16:00 +18°C° 0.1 mm 3 mps 750 mmHg 74%
    17:00 +17°C° 0 mm 3 mps 750 mmHg 77%
    18:00 +16°C° 0 mm 3 mps 750 mmHg 81%
    19:00 +14°C° 0 mm 4 mps 750 mmHg 84%
    20:00 +14°C° 0.1 mm 4 mps 750 mmHg 83%
    21:00 +14°C° 0.1 mm 4 mps 750 mmHg 83%
    22:00 +14°C° 0.1 mm 4 mps 749 mmHg 83%
    23:00 +14°C° 0.6 mm 4 mps 749 mmHg 85%

    28 September, Saturday

    Time Temperature Precipitation Wind Pressure Humidity
    00:00 +13°C° 0.6 mm 4 mps 749 mmHg 88%
    01:00 +13°C° 0.6 mm 4 mps 748 mmHg 91%
    02:00 +13°C° 0.4 mm 5 mps 748 mmHg 92%
    03:00 +13°C° 0.4 mm 5 mps 747 mmHg 93%
    04:00 +13°C° 0.4 mm 6 mps 747 mmHg 93%
    05:00 +13°C° 0.8 mm 6 mps 747 mmHg 93%
    06:00 +14°C° 0.8 mm 6 mps 746 mmHg 93%
    07:00 +14°C° 0.8 mm 6 mps 746 mmHg 93%
    08:00 +14°C° 0.1 mm 6 mps 746 mmHg 90%
    09:00 +15°C° 0.1 mm 6 mps 746 mmHg 87%
    10:00 +15°C° 0.1 mm 5 mps 746 mmHg 84%
    11:00 +16°C° 0.8 mm 5 mps 746 mmHg 81%
    12:00 +16°C° 0.8 mm 5 mps 746 mmHg 77%
    13:00 +17°C° 0.8 mm 5 mps 745 mmHg 73%
    14:00 +16°C° 0.9 mm 5 mps 745 mmHg 74%
    15:00 +17°C° 0.9 mm 4 mps 745 mmHg 75%
    16:00 +15°C° 0.9 mm 4 mps 745 mmHg 76%
    17:00 +14°C° 0.2 mm 4 mps 745 mmHg 80%
    18:00 +13°C° 0.2 mm 3 mps 745 mmHg 84%
    19:00 +12°C° 0.2 mm 3 mps 745 mmHg 88%
    20:00 +12°C° 0.2 mm 3 mps 745 mmHg 88%
    21:00 +12°C° 0.2 mm 3 mps 745 mmHg 89%
    22:00 +12°C° 0.2 mm 4 mps 745 mmHg 90%
    23:00 +11°C° 0.1 mm 4 mps 745 mmHg 89%
    Show more